SCP
0 0 0 0 0 0 0 0 0 0 0 0 0 0 0 0 0 0 0 0 0 0
0 0 0 0 0 0 0 0 0 0 0 0 0 0 0 0 0 0 0 0 0 0
0 0 0 0 0 0 0 0 0 0 0 0 0 0 0 0 0 0 0 0 0 0
0 0 0 0 0 0 0 0 0 0 0 0 0 0 0 0 0 0 0 0 0 0
0 0 0 0 0 0 0 0 0 0 0 0 0 0 0 0 0 0 0 0 0 0
0 0 0 0 0 0 0 0 0 0 0 0 0 0 0 0 0 0 0 0 0 0
0 0 0 0 0 0 0 0 0 0 0 0 0 0 0 0 0 0 0 0 0 0
0 0 0 0 0 0 0 0 0 0 0 0 0 0 0 0 0 0 0 0 0 0
-0 -0 -0 -0 0 0 0 0 0 0 0 0 0 0 0 0 0 0 0 0 0 0
0 0 0 -0 -0 -0 -0 0 0 0 0 0 0 0 0 0 0 0 0 0 0 0
-0 0 0 0 -0 -0 -0 0 0 0 0 0 0 0 0 0 0 0 0 0 0 0
0 0 0 0 0 0 0 0 0 0 0 0 0 0 0 0 0 0 0 0 0 0
0 0 0 0 0 0 0 0 0 0 0 0 0 0 0 0 0 0 0 0 0 0
0 0 0 0 0 0 0 0 0 0 0 0 0 0 0 0 0 0 0 0 0 0
Wind_Speed_500mb
13 8 7 12 18 24 31 35 39 43 48 53 57 64 70 72 75 77 82 83 86 92
15 12 12 13 17 20 24 27 31 36 41 44 50 57 64 71 76 80 83 86 85 89
17 17 21 25 29 31 34 36 37 37 39 41 46 50 57 64 71 75 82 85 87 89
25 27 30 33 38 41 43 46 48 50 52 52 52 52 57 62 67 75 80 85 86 91
31 32 35 38 40 44 47 49 53 56 60 62 64 63 64 66 67 71 76 81 86 90
32 34 36 38 40 42 46 49 51 56 58 59 59 61 63 66 69 71 74 76 79 83
37 39 40 42 43 45 46 49 49 49 52 55 59 63 65 66 68 70 72 74 75 77
44 46 48 49 50 52 53 53 55 57 56 58 59 59 63 67 72 76 75 73 73 71
52 54 56 59 61 64 65 66 65 63 66 67 67 67 67 69 70 70 72 75 71 64
56 60 64 68 71 73 74 74 74 73 74 74 73 73 75 74 72 71 69 67 65 64
62 65 69 72 74 77 81 81 82 81 79 79 74 74 74 74 72 69 66 61 59 62
59 66 70 73 74 76 80 82 85 85 83 80 77 71 71 71 68 68 66 58 53 58
58 63 66 69 71 73 77 80 82 81 76 75 75 71 66 60 59 61 57 51 47 49
59 62 63 66 69 72 75 78 80 80 76 69 64 66 62 51 51 51 53 53 49 46
Wind_Direction_500mb
55 28 332 301 291 286 283 281 279 275 271 267 264 268 271 273 274 274 274 278 279 280
39 28 8 347 330 319 308 301 294 289 284 278 273 268 265 267 269 269 270 272 273 273
5 347 335 326 320 316 312 307 303 298 291 286 282 277 273 271 272 272 272 271 271 270
354 344 334 326 321 316 313 309 305 302 299 298 296 291 285 281 277 274 275 276 276 276
348 342 337 333 330 324 320 316 311 308 304 301 298 294 290 287 283 278 275 275 276 276
345 345 342 339 334 329 324 320 318 317 315 312 307 302 298 293 289 285 282 279 275 275
357 354 348 342 335 330 326 321 316 312 308 307 306 307 305 299 294 290 286 283 279 277
350 346 341 337 336 333 330 325 320 317 312 309 305 303 299 297 296 294 290 285 282 279
339 337 334 332 332 331 328 325 321 320 317 313 310 309 305 301 297 292 290 289 289 287
326 325 324 324 323 323 324 323 323 321 319 316 314 313 308 304 300 295 293 291 291 289
319 319 319 320 321 322 320 320 320 318 318 317 316 312 308 306 301 294 291 291 290 287
315 315 315 315 316 317 316 316 316 317 317 316 315 314 311 307 303 301 298 296 291 289
313 313 312 311 312 313 313 313 313 313 314 314 315 316 314 312 309 307 308 302 294 290
310 310 311 310 310 310 310 312 313 313 315 320 319 315 312 310 305 305 301 300 299 296
Wind_Speed_850mb
13 8 7 12 18 24 31 35 39 43 48 53 57 64 70 72 75 77 82 83 86 92
15 12 12 13 17 20 24 27 31 36 41 44 50 57 64 71 76 80 83 86 85 89
17 17 21 25 29 31 34 36 37 37 39 41 46 50 57 64 71 75 82 85 87 89
25 27 30 33 38 41 43 46 48 50 52 52 52 52 57 62 67 75 80 85 86 91
31 32 35 38 40 44 47 49 53 56 60 62 64 63 64 66 67 71 76 81 86 90
32 34 36 38 40 42 46 49 51 56 58 59 59 61 63 66 69 71 74 76 79 83
37 39 40 42 43 45 46 49 49 49 52 55 59 63 65 66 68 70 72 74 75 77
44 46 48 49 50 52 53 53 55 57 56 58 59 59 63 67 72 76 75 73 73 71
52 54 56 59 61 64 65 66 65 63 66 67 67 67 67 69 70 70 72 75 71 64
56 60 64 68 71 73 74 74 74 73 74 74 73 73 75 74 72 71 69 67 65 64
62 65 69 72 74 77 81 81 82 81 79 79 74 74 74 74 72 69 66 61 59 62
59 66 70 73 74 76 80 82 85 85 83 80 77 71 71 71 68 68 66 58 53 58
58 63 66 69 71 73 77 80 82 81 76 75 75 71 66 60 59 61 57 51 47 49
59 62 63 66 69 72 75 78 80 80 76 69 64 66 62 51 51 51 53 53 49 46
Wind_Direction_850mb
55 28 332 301 291 286 283 281 279 275 271 267 264 268 271 273 274 274 274 278 279 280
39 28 8 347 330 319 308 301 294 289 284 278 273 268 265 267 269 269 270 272 273 273
5 347 335 326 320 316 312 307 303 298 291 286 282 277 273 271 272 272 272 271 271 270
354 344 334 326 321 316 313 309 305 302 299 298 296 291 285 281 277 274 275 276 276 276
348 342 337 333 330 324 320 316 311 308 304 301 298 294 290 287 283 278 275 275 276 276
345 345 342 339 334 329 324 320 318 317 315 312 307 302 298 293 289 285 282 279 275 275
357 354 348 342 335 330 326 321 316 312 308 307 306 307 305 299 294 290 286 283 279 277
350 346 341 337 336 333 330 325 320 317 312 309 305 303 299 297 296 294 290 285 282 279
339 337 334 332 332 331 328 325 321 320 317 313 310 309 305 301 297 292 290 289 289 287
326 325 324 324 323 323 324 323 323 321 319 316 314 313 308 304 300 295 293 291 291 289
319 319 319 320 321 322 320 320 320 318 318 317 316 312 308 306 301 294 291 291 290 287
315 315 315 315 316 317 316 316 316 317 317 316 315 314 311 307 303 301 298 296 291 289
313 313 312 311 312 313 313 313 313 313 314 314 315 316 314 312 309 307 308 302 294 290
310 310 311 310 310 310 310 312 313 313 315 320 319 315 312 310 305 305 301 300 299 296